Miscellaneous Local Product
Issued by NWS Hastings, NE

Home | Current Version | Previous Version | Graphics & Text | Print | Product List | Glossary On
Versions: 1 2 3 4 5 6 7 8 9 10 11 12 13 14 15 16 17 18 19 20 21 22 23 24 25 26 27 28 29 30 31 32 33 34 35 36 37 38 39 40 41 42 43 44 45 46 47 48 49 50
000
AXUS43 KGID 281802
MISGRI

GID CWA HOURLY WEATHER ROUNDUP
NATIONAL WEATHER SERVICE HASTINGS NE
100 PM CDT FRI AUG 28 2015

NOTE: "FAIR" INDICATES FEW OR NO CLOUDS BELOW 12,000 FEET WITH NO
SIGNIFICANT WEATHER AND/OR OBSTRUCTIONS TO VISIBILITY.

...SOUTH CENTRAL NEBRASKA...

CITY           SKY/WX    TMP DP  RH WIND       PRES   REMARKS
GRAND ISLAND   CLOUDY    75  62  64 N18       29.94R
HASTINGS       CLOUDY    77  65  66 NW12      29.94R
KEARNEY        CLOUDY    75  63  64 N10       29.96S
ORD            CLOUDY    71  63  75 N9        29.97R
YORK           CLOUDY    73  68  83 N7        29.91R
AURORA         CLOUDY    76  67  75 N10       29.92R
LEXINGTON      CLOUDY    75  65  73 N8        29.99S
HOLDREGE       CLOUDY    73  64  74 NW6       29.97S
HEBRON         CLOUDY    77  66  68 NW8       29.91S

...NEBRASKA PANHANDLE...

CITY           SKY/WX    TMP DP  RH WIND       PRES   REMARKS
CHADRON        SUNNY     83  50  31 VRB7      30.08S
ALLIANCE       SUNNY     84  52  33 N13G22    30.10S
SCOTTSBLUFF    MOSUNNY   81  51  35 W12       30.13F
SIDNEY         SUNNY     84  50  30 N17G24    30.15S

...WESTERN AND NORTH CENTRAL NEBRASKA...

CITY           SKY/WX    TMP DP  RH WIND       PRES   REMARKS
VALENTINE      CLOUDY    76  62  62 NE9       30.02F
AINSWORTH      CLOUDY    71  64  79 N9        30.03S
ONEILL         CLOUDY    69  65  86 N12       29.98S
BROKEN BOW     CLOUDY    72  64  76 N9        30.00R
IMPERIAL       SUNNY     86  52  30 NW16      30.05S
NORTH PLATTE   PTSUNNY   77  62  59 N12G21    30.03S
MCCOOK         SUNNY     85  60  42 N18       30.00F

...EASTERN NEBRASKA...

CITY           SKY/WX    TMP DP  RH WIND       PRES   REMARKS
NORFOLK        CLOUDY    70  64  81 N16       29.90R
SO SIOUX CITY  CLOUDY    70  64  81 N12       29.84S
TEKAMAH        CLOUDY    76  70  82 CALM      29.82F
COLUMBUS       CLOUDY    72  61  68 N7        29.89S
ALBION         CLOUDY    69  62  79 NW10G16   29.94R
OMAHA EPPLEY   CLOUDY    75  70  84 S9        29.84F FOG
OFFUTT AFB     CLOUDY    75  70  83 W8        29.84S
MILLARD        CLOUDY    75  71  85 CALM      29.84F
LINCOLN        CLOUDY    77  68  73 W6        29.87S
NEBRASKA CITY  CLOUDY    76  67  71 SW7       29.86F
BEATRICE       CLOUDY    74  67  78 NW8       29.88S
FALLS CITY     MOSUNNY   82  69  64 S18       29.86F

...NORTHERN KANSAS...

CITY           SKY/WX    TMP DP  RH WIND       PRES   REMARKS
GOODLAND       SUNNY     88  48  25 N13G25    30.07F
HILL CITY      SUNNY     86  60  41 NW15      29.98F
NORTON         MOCLDY    79  59  50 N8G16     29.98S
PHILLIPSBURG   MOSUNNY   82  64  54 NW8       29.96F
SMITH CENTER   CLOUDY    75  64  69 NW12      29.94F
HAYS           SUNNY     88  61  40 NW15G25   29.95S
RUSSELL        MOSUNNY   86  65  49 NW15      29.93S
CONCORDIA      CLOUDY    76  69  79 NW10      29.91S
SALINA         MOSUNNY   87  70  56 NW8       29.88F HX  92
TOPEKA         PTSUNNY   82  68  62 S10G17    29.91F



USA.gov is the U.S. government's official web portal to all federal, state and local government web resources and services.